Rijeka, Croatia

11:51 AM CET on January 17, 2019 (GMT +0100)
Rijeka

Weather History for LDRI - January, 2019

Change the Weather History Date:

Friday, January 11, 2019

  Actual Average (WUND) Record (WUND)
Temperature  
Mean Temperature 37 °F -  
Max Temperature 42 °F - - (-1)
Min Temperature 32 °F - - (-1)
Degree Days  
Heating Degree Days 28    
Moisture  
Dew Point 17 °F    
Average Humidity 43    
Maximum Humidity 60    
Minimum Humidity 29    
Precipitation  
Precipitation 0.00 in - - ()
Sea Level Pressure  
Sea Level Pressure 30.09 in    
Wind  
Wind Speed 6 mph ()    
Max Wind Speed 13 mph    
Max Gust Speed -    
Visibility 6.2 miles    
Events      
Averages and records for this station are not official NWS values.
T = Trace of Precipitation, MM = Missing Value Source: Averaged Metar Reports

Daily Weather History Graph

Daily Weather History Graph

Search for Another Location

Airport or City:

Astronomy

Jan. 11, 2019 Rise Set
Actual Time 7:39 AM CET 4:40 PM CET
Civil Twilight 7:05 AM CET 5:13 PM CET
Nautical Twilight 6:29 AM CET 5:50 PM CET
Astronomical Twilight 5:53 AM CET 6:25 PM CET
Moon 10:38 AM CET (1/11) 9:56 PM CET (1/11)
Length of Visible Light 10h 07m
Length of Day
9h 01m
Waxing Crescent, 24% of the Moon is Illuminated
Jan 11
Waxing Crescent
Jan 14
First Quarter
Jan 21
Full
Jan 27
Last Quarter
Feb 4
New

Hourly Weather History & Observations

Time (CET) Temp. Windchill Dew Point Humidity Pressure Visibility Wind Dir Wind Speed Gust Speed Precip Events Conditions
12:00 AM 39.2 °F 32.5 °F 21.2 °F 49% 30.01 in 6.2 mi ENE 10.4 mph - N/A   Scattered Clouds
12:30 AM 39.2 °F 33.0 °F 21.2 °F 49% 30.01 in 6.2 mi North 9.2 mph - N/A   Scattered Clouds
1:00 AM 39.2 °F 33.6 °F 21.2 °F 49% 30.01 in 6.2 mi NNE 8.1 mph - N/A   Scattered Clouds
1:30 AM 39.2 °F 33.0 °F 21.2 °F 49% 30.01 in 6.2 mi NNE 9.2 mph - N/A   Scattered Clouds
2:00 AM 37.4 °F 32.1 °F 23.0 °F 56% 30.04 in 6.2 mi NNE 6.9 mph - N/A   Scattered Clouds
2:30 AM 37.4 °F 32.1 °F 21.2 °F 52% 30.04 in 6.2 mi North 6.9 mph - N/A   Scattered Clouds
3:00 AM 37.4 °F 32.1 °F 21.2 °F 52% 30.04 in 6.2 mi North 6.9 mph - N/A   Scattered Clouds
3:30 AM 37.4 °F 32.1 °F 21.2 °F 52% 30.04 in 6.2 mi North 6.9 mph - N/A   Scattered Clouds
4:00 AM 37.4 °F 34.9 °F 21.2 °F 52% 30.04 in 6.2 mi NNE 3.5 mph - N/A   Partly Cloudy
4:30 AM 37.4 °F 33.8 °F 21.2 °F 52% 30.04 in 6.2 mi NNE 4.6 mph - N/A   Partly Cloudy
5:00 AM 35.6 °F 32.8 °F 21.2 °F 56% 30.04 in 6.2 mi Variable 3.5 mph - N/A   Partly Cloudy
5:30 AM 37.4 °F 33.8 °F 21.2 °F 52% 30.04 in 6.2 mi Variable 4.6 mph - N/A   Partly Cloudy
6:00 AM 37.4 °F 32.8 °F 21.2 °F 52% 30.06 in 6.2 mi North 5.8 mph - N/A   Partly Cloudy
6:30 AM 33.8 °F 29.6 °F 21.2 °F 60% 30.06 in 6.2 mi Variable 4.6 mph - N/A   Partly Cloudy
7:00 AM 35.6 °F - 19.4 °F 52% 30.06 in 6.2 mi Variable 1.2 mph - N/A   Partly Cloudy
7:30 AM 33.8 °F 30.8 °F 19.4 °F 56% 30.04 in 6.2 mi Variable 3.5 mph - N/A   Partly Cloudy
8:30 AM 37.4 °F 32.8 °F 19.4 °F 48% 30.09 in 6.2 mi Variable 5.8 mph - N/A   Partly Cloudy
9:00 AM 39.2 °F 37.0 °F 17.6 °F 42% 30.12 in 6.2 mi Variable 3.5 mph - N/A   Partly Cloudy
9:30 AM 39.2 °F 35.9 °F 19.4 °F 45% 30.12 in 6.2 mi WSW 4.6 mph - N/A   Partly Cloudy
10:00 AM 41.0 °F 39.0 °F 17.6 °F 39% 30.12 in - Variable 3.5 mph - N/A   Clear
10:30 AM 41.0 °F 37.1 °F 15.8 °F 36% 30.12 in - Variable 5.8 mph - N/A   Clear
11:00 AM 41.0 °F 36.4 °F 15.8 °F 36% 30.12 in - Variable 6.9 mph - N/A   Clear
11:30 AM 42.8 °F 40.1 °F 15.8 °F 34% 30.12 in - Variable 4.6 mph - N/A   Clear
12:00 PM 41.0 °F 36.4 °F 15.8 °F 36% 30.12 in - North 6.9 mph - N/A   Clear
12:30 PM 42.8 °F 39.3 °F 14.0 °F 31% 30.12 in - NE 5.8 mph - N/A   Clear
1:00 PM 42.8 °F 38.6 °F 14.0 °F 31% 30.09 in - Variable 6.9 mph - N/A   Clear
1:30 PM 42.8 °F 37.5 °F 14.0 °F 31% 30.09 in - ENE 9.2 mph - N/A   Clear
2:00 PM 42.8 °F 38.0 °F 12.2 °F 29% 30.09 in - NE 8.1 mph - N/A   Clear
2:30 PM 42.8 °F 36.2 °F 14.0 °F 31% 30.09 in - NE 12.7 mph - N/A   Clear
3:00 PM 42.8 °F 37.5 °F 14.0 °F 31% 30.09 in - NE 9.2 mph - N/A   Clear
3:30 PM 41.0 °F 35.2 °F 14.0 °F 33% 30.09 in - ENE 9.2 mph - N/A   Clear
4:00 PM 41.0 °F 35.8 °F 14.0 °F 33% 30.09 in - NE 8.1 mph - N/A   Clear
4:30 PM 39.2 °F 33.6 °F 15.8 °F 39% 30.12 in - NE 8.1 mph - N/A   Clear
5:00 PM 39.2 °F 33.6 °F 15.8 °F 39% 30.12 in - NE 8.1 mph - N/A   Clear
5:30 PM 37.4 °F 31.4 °F 15.8 °F 41% 30.12 in - NE 8.1 mph - N/A   Clear
6:00 PM 37.4 °F 32.8 °F 14.0 °F 38% 30.12 in - ENE 5.8 mph - N/A   Clear
7:00 PM 35.6 °F 31.7 °F 14.0 °F 41% 30.12 in - East 4.6 mph - N/A   Clear
7:30 PM 32.0 °F - 15.8 °F 51% 30.12 in - Calm Calm - N/A   Clear
8:00 PM 35.6 °F 31.7 °F 15.8 °F 44% 30.12 in - NNW 4.6 mph - N/A   Clear
8:30 PM 37.4 °F 30.8 °F 14.0 °F 38% 30.12 in - North 9.2 mph - N/A   Clear
9:00 PM 35.6 °F 29.2 °F 15.8 °F 44% 30.12 in - NNW 8.1 mph - N/A   Clear
9:30 PM 35.6 °F 27.5 °F 15.8 °F 44% 30.12 in - North 11.5 mph - N/A   Clear
10:00 PM 35.6 °F 29.2 °F 15.8 °F 44% 30.12 in - NNE 8.1 mph - N/A   Clear
10:30 PM 35.6 °F 29.2 °F 15.8 °F 44% 30.12 in - NNE 8.1 mph - N/A   Clear
11:00 PM 35.6 °F 29.2 °F 15.8 °F 44% 30.12 in - North 8.1 mph - N/A   Clear
11:30 PM 35.6 °F 29.9 °F 14.0 °F 41% 30.12 in - NE 6.9 mph - N/A   Clear